• In Czech Republic
  • List of Countries
  • For 7 days
  • Water Temperature
  • Satellite Maps
  • Weather Map
  • Weather Widgets
  • user-avatar
    Login

    Hourly Weather Ilkovo

    Today, 21 April, Saturday

    Time Temperature Precipitation Wind Pressure Humidity
    00:00 +7°C° 0 mm 2 mps 738 mmHg 81%
    01:00 +7°C° 0 mm 3 mps 738 mmHg 83%
    02:00 +6°C° 0 mm 2 mps 737 mmHg 82%
    03:00 +5°C° 0 mm 3 mps 737 mmHg 82%
    04:00 +5°C° 0 mm 3 mps 736 mmHg 83%
    05:00 +5°C° 0 mm 4 mps 736 mmHg 83%
    06:00 +7°C° 0 mm 5 mps 735 mmHg 77%
    07:00 +9°C° 0 mm 6 mps 735 mmHg 71%
    08:00 +11°C° 0 mm 7 mps 734 mmHg 64%
    09:00 +12°C° 0 mm 8 mps 733 mmHg 59%
    10:00 +15°C° 0 mm 8 mps 732 mmHg 55%
    11:00 +16°C° 0 mm 9 mps 731 mmHg 51%
    12:00 +17°C° 0 mm 9 mps 730 mmHg 49%
    13:00 +18°C° 0 mm 10 mps 729 mmHg 48%
    14:00 +18°C° 0 mm 10 mps 728 mmHg 46%
    15:00 +18°C° 0.1 mm 10 mps 727 mmHg 50%
    16:00 +17°C° 0.1 mm 9 mps 726 mmHg 53%
    17:00 +17°C° 0.1 mm 8 mps 725 mmHg 56%
    18:00 +16°C° 0.8 mm 8 mps 725 mmHg 60%
    19:00 +15°C° 0.8 mm 8 mps 725 mmHg 64%
    20:00 +12°C° 0.8 mm 8 mps 724 mmHg 67%
    21:00 +11°C° 0 mm 7 mps 725 mmHg 68%
    22:00 +9°C° 0 mm 7 mps 725 mmHg 68%
    23:00 +6°C° 0 mm 7 mps 726 mmHg 68%

    Tomorrow, 22 April, Sunday

    Time Temperature Precipitation Wind Pressure Humidity
    00:00 +6°C° 0 mm 7 mps 726 mmHg 69%
    01:00 +5°C° 0 mm 7 mps 727 mmHg 70%
    02:00 +4°C° 0 mm 7 mps 727 mmHg 72%
    03:00 +4°C° 0 mm 8 mps 727 mmHg 72%
    04:00 +4°C° 0 mm 8 mps 727 mmHg 72%
    05:00 +4°C° 0 mm 8 mps 727 mmHg 72%
    06:00 +4°C° 0.1 mm 8 mps 728 mmHg 69%
    07:00 +5°C° 0.1 mm 8 mps 728 mmHg 66%
    08:00 +5°C° 0.1 mm 9 mps 729 mmHg 64%
    09:00 +6°C° 0.1 mm 9 mps 729 mmHg 62%
    10:00 +6°C° 0.1 mm 8 mps 729 mmHg 61%
    11:00 +6°C° 0.1 mm 8 mps 729 mmHg 60%
    12:00 +6°C° 0.2 mm 8 mps 730 mmHg 59%
    13:00 +7°C° 0.2 mm 8 mps 730 mmHg 58%
    14:00 +8°C° 0.2 mm 7 mps 730 mmHg 57%
    15:00 +8°C° 0.2 mm 7 mps 730 mmHg 58%
    16:00 +6°C° 0.2 mm 7 mps 731 mmHg 59%
    17:00 +7°C° 0.2 mm 6 mps 731 mmHg 61%
    18:00 +6°C° 0.1 mm 5 mps 731 mmHg 64%
    19:00 +5°C° 0.1 mm 4 mps 732 mmHg 68%
    20:00 +4°C° 0.1 mm 3 mps 732 mmHg 72%
    21:00 +3°C° 0 mm 3 mps 733 mmHg 72%
    22:00 +3°C° 0 mm 3 mps 733 mmHg 72%
    23:00 +3°C° 0 mm 3 mps 734 mmHg 72%

    Day after tomorrow, 23 April, Monday

    Time Temperature Precipitation Wind Pressure Humidity
    00:00 +2°C° 0 mm 3 mps 734 mmHg 72%
    01:00 +2°C° 0 mm 3 mps 734 mmHg 72%
    02:00 +1°C° 0 mm 3 mps 735 mmHg 72%
    03:00 +1°C° 0 mm 3 mps 735 mmHg 72%
    04:00 -1°C° 0 mm 4 mps 736 mmHg 73%
    05:00 -2°C° 0 mm 4 mps 736 mmHg 74%
    06:00 -1°C° 0 mm 4 mps 736 mmHg 66%
    07:00 0°C° 0 mm 5 mps 737 mmHg 58%
    08:00 0°C° 0 mm 5 mps 737 mmHg 51%
    09:00 +1°C° 0 mm 5 mps 738 mmHg 48%
    10:00 +2°C° 0 mm 5 mps 738 mmHg 45%
    11:00 +3°C° 0 mm 5 mps 738 mmHg 43%
    12:00 +5°C° 0 mm 5 mps 738 mmHg 42%
    13:00 +5°C° 0 mm 5 mps 738 mmHg 41%
    14:00 +6°C° 0 mm 5 mps 738 mmHg 40%
    15:00 +6°C° 0 mm 5 mps 738 mmHg 41%
    16:00 +6°C° 0 mm 4 mps 738 mmHg 42%
    17:00 +6°C° 0 mm 4 mps 738 mmHg 43%
    18:00 +4°C° 0 mm 3 mps 739 mmHg 48%
    19:00 +4°C° 0 mm 2 mps 739 mmHg 52%
    20:00 +3°C° 0 mm 2 mps 739 mmHg 57%
    21:00 +3°C° 0 mm 1 mps 740 mmHg 58%
    22:00 +3°C° 0 mm 1 mps 740 mmHg 60%
    23:00 +2°C° 0 mm 1 mps 740 mmHg 61%

    24 April, Tuesday

    Time Temperature Precipitation Wind Pressure Humidity
    00:00 +2°C° 0 mm 1 mps 740 mmHg 62%
    01:00 +2°C° 0 mm 1 mps 740 mmHg 63%
    02:00 +1°C° 0 mm 1 mps 740 mmHg 64%
    03:00 +2°C° 0 mm 1 mps 740 mmHg 64%
    04:00 +2°C° 0 mm 1 mps 740 mmHg 64%
    05:00 +2°C° 0 mm 1 mps 741 mmHg 64%
    06:00 +3°C° 0 mm 1 mps 741 mmHg 58%
    07:00 +4°C° 0 mm 2 mps 741 mmHg 53%
    08:00 +6°C° 0 mm 2 mps 741 mmHg 47%
    09:00 +7°C° 0 mm 2 mps 740 mmHg 44%
    10:00 +8°C° 0 mm 2 mps 740 mmHg 40%
    11:00 +9°C° 0 mm 2 mps 740 mmHg 37%
    12:00 +10°C° 0 mm 3 mps 739 mmHg 37%
    13:00 +10°C° 0 mm 3 mps 739 mmHg 37%
    14:00 +11°C° 0 mm 4 mps 739 mmHg 37%
    15:00 +10°C° 0 mm 3 mps 739 mmHg 42%
    16:00 +10°C° 0 mm 3 mps 738 mmHg 47%
    17:00 +9°C° 0 mm 2 mps 738 mmHg 51%
    18:00 +9°C° 0 mm 2 mps 738 mmHg 55%
    19:00 +8°C° 0 mm 2 mps 738 mmHg 60%
    20:00 +7°C° 0 mm 2 mps 738 mmHg 64%
    21:00 +7°C° 0.1 mm 2 mps 738 mmHg 69%
    22:00 +6°C° 0.1 mm 2 mps 738 mmHg 75%
    23:00 +6°C° 0.1 mm 2 mps 737 mmHg 80%

    25 April, Wednesday

    Time Temperature Precipitation Wind Pressure Humidity
    00:00 +6°C° 0.1 mm 2 mps 737 mmHg 82%
    01:00 +5°C° 0.1 mm 3 mps 737 mmHg 83%
    02:00 +5°C° 0.1 mm 3 mps 737 mmHg 85%
    03:00 +5°C° 0.1 mm 3 mps 737 mmHg 84%
    04:00 +5°C° 0.1 mm 4 mps 736 mmHg 84%
    05:00 +5°C° 0.1 mm 4 mps 736 mmHg 84%
    06:00 +5°C° 0.1 mm 5 mps 736 mmHg 83%
    07:00 +6°C° 0.1 mm 5 mps 736 mmHg 83%
    08:00 +7°C° 0.1 mm 5 mps 736 mmHg 83%
    09:00 +7°C° 0.1 mm 5 mps 735 mmHg 81%
    10:00 +8°C° 0.1 mm 6 mps 735 mmHg 80%
    11:00 +9°C° 0.1 mm 6 mps 735 mmHg 79%
    12:00 +9°C° 0.9 mm 6 mps 734 mmHg 81%
    13:00 +9°C° 0.9 mm 6 mps 734 mmHg 83%
    14:00 +9°C° 0.9 mm 6 mps 733 mmHg 86%
    15:00 +9°C° 0.4 mm 6 mps 733 mmHg 82%
    16:00 +10°C° 0.4 mm 6 mps 733 mmHg 78%
    17:00 +10°C° 0.4 mm 6 mps 733 mmHg 75%
    18:00 +9°C° 0.1 mm 6 mps 733 mmHg 77%
    19:00 +8°C° 0.1 mm 5 mps 734 mmHg 79%
    20:00 +6°C° 0.1 mm 4 mps 734 mmHg 81%
    21:00 +6°C° 0 mm 4 mps 734 mmHg 82%
    22:00 +5°C° 0 mm 4 mps 735 mmHg 82%
    23:00 +5°C° 0 mm 4 mps 735 mmHg 83%

    26 April, Thursday

    Time Temperature Precipitation Wind Pressure Humidity
    00:00 +4°C° 0 mm 4 mps 735 mmHg 85%
    01:00 +4°C° 0 mm 4 mps 735 mmHg 86%
    02:00 +3°C° 0 mm 4 mps 736 mmHg 88%
    03:00 +3°C° 0 mm 4 mps 736 mmHg 88%
    04:00 +3°C° 0 mm 4 mps 736 mmHg 89%
    05:00 +3°C° 0 mm 3 mps 736 mmHg 90%
    06:00 +5°C° 0 mm 4 mps 737 mmHg 83%
    07:00 +7°C° 0 mm 4 mps 737 mmHg 76%
    08:00 +8°C° 0 mm 4 mps 737 mmHg 68%
    09:00 +11°C° 0 mm 4 mps 737 mmHg 62%
    10:00 +12°C° 0 mm 5 mps 737 mmHg 55%
    11:00 +14°C° 0 mm 5 mps 736 mmHg 48%
    12:00 +14°C° 0 mm 5 mps 736 mmHg 51%
    13:00 +14°C° 0 mm 4 mps 736 mmHg 53%
    14:00 +15°C° 0 mm 4 mps 735 mmHg 56%
    15:00 +15°C° 0.3 mm 4 mps 735 mmHg 63%
    16:00 +15°C° 0.3 mm 4 mps 734 mmHg 70%
    17:00 +15°C° 0.3 mm 4 mps 733 mmHg 77%
    18:00 +14°C° 0.6 mm 4 mps 733 mmHg 81%
    19:00 +14°C° 0.6 mm 4 mps 733 mmHg 86%
    20:00 +13°C° 0.6 mm 3 mps 733 mmHg 90%
    21:00 +13°C° 0 mm 3 mps 733 mmHg 91%
    22:00 +12°C° 0 mm 3 mps 734 mmHg 92%
    23:00 +12°C° 0 mm 3 mps 734 mmHg 93%
    Show more